Flag for Canada Weather past 2 weeks in Lethbridge, Alberta, Canada

Now
39 °F

Passing clouds.


Feels Like: 32 °F
Forecast: 32 / 66 °F
Wind: 12 mph from South

Location: Lethbridge

Current Time: Apr 26, 2015 at 10:56:02 PM

Latest Report: Apr 26, 2015 at 10:00 PM


Visibility: 40 mi

Pressure: 30.24 "Hg

Humidity: 65%

Dew point: 28 °F

Location of LethbridgeLocation

Historic Weather in Lethbridge — Graph

°F

Lethbridge temperature yesterday

Maximum temperature yesterday: 48 °F (at 3:00 PM)
Minimum temperature yesterday: 34 °F (at 2:00 AM)
Average temperature yesterday: 39 °F

Past Weeks' High & Low Weather Summary

 TemperatureHumidityPressure
High70 °F (Apr 17, 4:00 PM)100% (Apr 18, 8:00 AM)30.38 "Hg (Apr 18, 8:00 AM)
Low21 °F (Apr 19, 5:00 AM)17% (Apr 13, 6:00 PM)29.60 "Hg (Apr 14, 12:00 PM)
Average45 °F53%29.97 "Hg
* Reported Apr 11 10:00 PM — Apr 26 10:00 PM, Lethbridge, Weather by CustomWeather, © 2015

Note: Actual official high and low records may vary slightly from our data, if they occured in-between our weather recording intervals... More about our weather records

Advertising

Lethbridge weather history for previous 24 hours

 ConditionsComfort  
Time TempWeatherWind HumidityBarometerVisibility
10:00 PM
Sun, Apr 26
39 °FPassing clouds.12 mph65%30.24 "Hg40 mi
9:00 PM43 °FPassing clouds.15 mph57%30.22 "Hg40 mi
8:00 PM48 °FPassing clouds.8 mph54%30.20 "Hg30 mi
7:00 PM52 °FPassing clouds.13 mph41%30.20 "Hg30 mi
6:00 PM52 °FPassing clouds.7 mph38%30.20 "Hg30 mi
5:00 PM52 °FPassing clouds.2 mph38%30.21 "Hg30 mi
4:00 PM48 °FPartly sunny.6 mph43%30.22 "Hg20 mi
3:00 PM46 °FOvercast.2 mph46%30.24 "Hg20 mi
2:00 PM45 °FOvercast.No wind49%30.24 "Hg20 mi
1:00 PM43 °FOvercast.3 mph53%30.25 "Hg20 mi
12:00 PM41 °FPartly sunny.10 mph57%30.27 "Hg20 mi
11:00 AM37 °FOvercast.7 mph65%30.27 "Hg20 mi
10:00 AM36 °FMore clouds than sun.6 mph65%30.27 "Hg20 mi
9:00 AM34 °FOvercast.8 mph70%30.25 "Hg25 mi
8:00 AM32 °FPartly sunny.9 mph75%30.24 "Hg20 mi
7:00 AM28 °FPassing clouds.5 mph86%30.22 "Hg20 mi
6:00 AM30 °FPassing clouds.13 mph80%30.19 "Hg20 mi
5:00 AM30 °FOvercast.13 mph80%30.18 "Hg9 mi
4:00 AM32 °FOvercast.13 mph75%30.16 "Hg9 mi
3:00 AM32 °FMostly cloudy.13 mph75%30.16 "Hg9 mi
2:00 AM32 °FOvercast.15 mph80%30.14 "Hg9 mi
1:00 AM32 °FOvercast.12 mph80%30.14 "Hg9 mi
12:00 AM34 °FOvercast.13 mph75%30.15 "Hg9 mi
11:00 PM
Sat, Apr 25
34 °FOvercast.20 mph75%30.12 "Hg9 mi
10:00 PM34 °FOvercast.17 mph75%30.11 "Hg15 mi
Weather by CustomWeather, © 2015

See weather overviewHow to use our weather pages